THOR ABLESTAR DEB, 13511

Orbit data source: Space-Track

THOR ABLESTAR DEB, 13511 is space debris in LEO originally from a launch on Thu, 29 Jun 1961 UTC launched from the Air Force Eastern Test Range (AFETR). Debris objects in space refer to the collection of defunct objects orbiting the Earth. Examples of debris include non-operational satellites, rocket bodies, and fragments generated from explosions, collisions, or faulty payload assembly.

Loading next visibility...
Identifier
13511, 1961-015KU
Orbit
LEO
Country
Flag of USUS
Related business
Manufacturer
Unknown
Mission
Spacecraft
Bus & Motor
Unknown
Mass
Unknown
Launch date (UTC)
1961-06-29 (64 years ago)
Launch vehicle
Unknown
Launch site
Air Force Eastern Test Range (AFETR)
Object type
Payload
Rocket body
Debris
Shape & HBR
Unknown shape, 0.1 m
Radar Cross Section
Small (<0.1 m²)

Expand to show TLE details & history
Last TLE update: 1 day ago

TLE from 1 day ago
0 THOR ABLESTAR DEB
1 13511U 61015KU  25303.79198884  .00000336  00000-0  46282-3 0  9998
2 13511  65.8422  61.4650 0129091 284.0908 231.7011 13.67689760259728
Epoch: 2025-10-30T19:00Z
TLE epoch observation values (Epoch: 2025-10-30T19:00:27.835Z)
Latitude
23.03547°
Longitude
-93.93429°
Altitude
1,069.593 km
Speed
7.29 km/s
True Right ascension
15h 22m 06s
True Declination
22° 55' 01"
Sunlit
Object was in daylight at epoch
Visualization orbit readout
Latitude
Unknown
Longitude
Unknown
Altitude
Unknown
Speed
Unknown
Apparent Right ascension
Unknown
Apparent Declination
Unknown
Sunlit
N/A
Visualization observer readout
Local Sidereal Time
14:16:09
Azimuth
Unknown
Elevation
Unknown
Doppler factor
Unknown
Orbital elements
Apogee altitude
1,101.725 km
Perigee altitude
911.07 km
Semi-major axis
7,384.535 km
Eccentricity
0.01291
Inclination
65.8422°
RAAN
61.465°
Arg. of periapsis
284.0908°
True anomaly
230.55176°
Mean anomaly
231.7011°
Eccentric anomaly
231.12528°
Mean motion
3.42025 °/min
Orbital period
105.26 mins
BSTAR
0.00046282
Loading maneuver chart data...
Computing Atmospheric mass density...

Documentation

Showing up to 5 results
|